TimeCST,TemperatureF,Dew PointF,Humidity,Sea Level PressureIn,VisibilityMPH,Wind Direction,Wind SpeedMPH,Gust SpeedMPH,PrecipitationIn,Events,Conditions,WindDirDegrees,DateUTC
12:53 AM,48.9,41.0,74,30.10,10.0,ENE,3.5,-,N/A,,Mostly Cloudy,60,2013-11-05 06:53:00
1:53 AM,48.9,42.1,77,30.09,10.0,NE,3.5,-,N/A,,Overcast,50,2013-11-05 07:53:00
2:43 AM,48.2,42.8,82,30.09,10.0,ENE,3.5,-,N/A,,Overcast,70,2013-11-05 08:43:00
2:53 AM,50.0,42.1,74,30.08,10.0,East,6.9,-,N/A,,Overcast,80,2013-11-05 08:53:00
3:53 AM,50.0,43.0,77,30.08,10.0,NE,3.5,-,N/A,,Overcast,50,2013-11-05 09:53:00
4:10 AM,48.2,44.6,87,30.08,7.0,NE,4.6,-,0.00,Rain,Light Rain,50,2013-11-05 10:10:00
4:53 AM,48.9,45.0,86,30.07,9.0,NE,4.6,-,0.00,,Overcast,50,2013-11-05 10:53:00
5:35 AM,48.2,46.4,93,30.07,4.0,ENE,3.5,-,0.01,Rain,Light Rain,70,2013-11-05 11:35:00
5:53 AM,48.0,46.9,96,30.06,3.0,East,6.9,-,0.01,Rain,Light Rain,80,2013-11-05 11:53:00
6:16 AM,48.2,46.4,93,30.06,2.5,East,5.8,-,0.01,Rain,Light Rain,80,2013-11-05 12:16:00
6:23 AM,48.2,46.4,93,30.05,2.5,East,6.9,-,0.02,Rain,Light Rain,80,2013-11-05 12:23:00
6:53 AM,48.9,48.0,97,30.05,3.0,East,5.8,-,0.04,Rain,Light Rain,80,2013-11-05 12:53:00
7:05 AM,48.2,48.2,100,30.04,2.5,East,5.8,-,0.01,Rain,Light Rain,80,2013-11-05 13:05:00
7:16 AM,50.0,48.2,94,30.03,1.0,East,4.6,-,0.01,Rain,Light Rain,90,2013-11-05 13:16:00
7:28 AM,50.0,48.2,94,30.03,1.8,East,6.9,-,0.01,Rain,Light Rain,90,2013-11-05 13:28:00
7:36 AM,50.0,48.2,94,30.03,2.5,East,6.9,-,0.01,Rain,Light Rain,90,2013-11-05 13:36:00
7:53 AM,51.1,50.0,96,30.04,2.5,East,9.2,-,0.01,Rain,Light Rain,100,2013-11-05 13:53:00
8:11 AM,51.8,51.8,100,30.03,1.5,East,9.2,-,0.01,Rain,Light Rain,100,2013-11-05 14:11:00
8:35 AM,51.8,51.8,100,30.02,0.8,ESE,9.2,-,0.01,Rain,Light Rain,110,2013-11-05 14:35:00
8:53 AM,53.1,52.0,96,30.02,1.0,ESE,8.1,-,0.01,,Overcast,120,2013-11-05 14:53:00
9:29 AM,53.6,53.6,100,30.00,3.0,SE,9.2,-,N/A,,Overcast,130,2013-11-05 15:29:00
9:53 AM,54.0,54.0,100,29.99,3.0,SE,12.7,17.3,N/A,,Overcast,140,2013-11-05 15:53:00
9:58 AM,55.4,53.6,94,29.98,2.5,SE,10.4,-,0.00,Rain,Light Rain,140,2013-11-05 15:58:00
10:18 AM,55.4,53.6,94,29.98,7.0,SE,10.4,-,0.01,,Overcast,140,2013-11-05 16:18:00
10:53 AM,55.0,54.0,96,29.97,2.5,SE,9.2,-,0.02,Rain,Light Rain,140,2013-11-05 16:53:00
11:06 AM,55.4,53.6,94,29.95,5.0,SE,8.1,-,0.01,Rain,Light Rain,130,2013-11-05 17:06:00
11:33 AM,55.4,53.6,94,29.93,10.0,SE,9.2,18.4,0.01,,Overcast,140,2013-11-05 17:33:00
11:53 AM,55.9,55.0,97,29.92,7.0,SSE,10.4,-,0.01,Rain,Light Rain,150,2013-11-05 17:53:00
12:53 PM,57.0,55.0,93,29.88,6.0,South,12.7,-,0.01,,Overcast,170,2013-11-05 18:53:00
1:53 PM,57.9,55.9,93,29.84,10.0,South,13.8,-,0.06,Rain,Light Rain,170,2013-11-05 19:53:00
2:53 PM,57.9,55.9,93,29.82,10.0,South,12.7,-,0.01,Rain,Light Rain,170,2013-11-05 20:53:00
3:20 PM,57.2,55.4,94,29.83,9.0,South,12.7,20.7,0.00,Rain,Light Rain,180,2013-11-05 21:20:00
3:53 PM,57.9,57.0,97,29.82,10.0,South,8.1,17.3,0.01,,Overcast,180,2013-11-05 21:53:00
4:53 PM,57.9,57.0,97,29.82,10.0,South,10.4,18.4,0.03,Rain,Light Rain,180,2013-11-05 22:53:00
5:20 PM,57.2,57.2,100,29.81,10.0,South,9.2,-,0.02,Rain,Light Rain,180,2013-11-05 23:20:00
5:53 PM,59.0,57.0,93,29.81,10.0,South,8.1,-,0.02,Rain,Light Rain,180,2013-11-05 23:53:00
6:53 PM,59.0,57.0,93,29.81,10.0,South,10.4,18.4,0.00,,Overcast,180,2013-11-06 00:53:00
7:53 PM,51.1,48.9,92,29.85,3.0,WNW,16.1,27.6,0.04,Rain,Heavy Rain,300,2013-11-06 01:53:00
8:04 PM,46.4,44.6,93,29.85,3.0,NW,18.4,32.2,0.03,Rain,Heavy Rain,310,2013-11-06 02:04:00
8:53 PM,43.0,43.0,100,29.90,7.0,WNW,18.4,23.0,0.06,Rain,Rain,300,2013-11-06 02:53:00
9:53 PM,41.0,39.9,96,29.94,10.0,NW,15.0,21.9,0.03,Rain,Light Rain,310,2013-11-06 03:53:00
10:53 PM,39.0,37.0,93,29.96,10.0,NW,13.8,24.2,0.00,,Overcast,320,2013-11-06 04:53:00
11:53 PM,37.9,36.0,93,30.01,10.0,NW,12.7,21.9,N/A,,Overcast,310,2013-11-06 05:53:00